Home > Weather > Locarno > Past weeks

Flag for Switzerland Weather for the Past 2 Weeks in Locarno, Ticino, Switzerland

Now
30 °F

Clear.


Feels Like: 30 °F
Forecast: 14 / 26 °F
Wind: 2 mph from North

Location: Lugano Airport

Current Time: Feb 11, 2016 at 4:39:12 AM

Latest Report: Feb 11, 2016 at 4:20 AM


Visibility: 10 mi

Pressure: 29.71 "Hg

Humidity: 80%

Dew point: 25 °F

Location of LocarnoLocation

Historic Weather in Locarno — Graph

°F

Locarno Temperature Yesterday

Maximum temperature yesterday: 52 °F (at 2:50 PM)
Minimum temperature yesterday: 32 °F (at 7:20 AM)
Average temperature yesterday: 41 °F

High & Low Weather Summary for the Past Weeks

 TemperatureHumidityPressure
High59 °F (Jan 31, 2:50 PM)100% (Jan 27, 5:20 AM)30.48 "Hg (Jan 27, 5:20 AM)
Low28 °F (Jan 27, 5:50 AM)18% (Feb 3, 10:20 PM)29.33 "Hg (Feb 10, 1:20 AM)
Average42 °F81%30.13 "Hg
* Reported Jan 27 3:20 AM — Feb 11 3:50 AM, Locarno, Weather by CustomWeather, © 2016

Note: Actual official high and low records may vary slightly from our data, if they occured in-between our weather recording intervals... More about our weather records

Advertising

Locarno Weather History for the Previous 24 Hours

 ConditionsComfort  
Time TempWeatherWind HumidityBarometerVisibility
3:50 AM
Thu, Feb 11
30 °FClear.3 mph80%29.71 "Hg10 mi
3:20 AM28 °FClear.1 mph80%29.71 "Hg10 mi
2:50 AM30 °FClear.2 mph80%29.71 "Hg10 mi
2:20 AM30 °FClear.1 mph75%29.71 "Hg10 mi
1:50 AM30 °FClear.2 mph86%29.68 "Hg10 mi
1:20 AM30 °FClear.2 mph80%29.68 "Hg10 mi
12:50 AM30 °FClear.2 mph80%29.68 "Hg10 mi
12:20 AM30 °FClear.2 mph86%29.68 "Hg10 mi
11:50 PM
Wed, Feb 10
32 °FClear.2 mph75%29.68 "Hg10 mi
10:50 PM32 °FClear.2 mph75%29.65 "Hg10 mi
10:20 PM34 °FClear.2 mph75%29.65 "Hg10 mi
9:50 PM36 °FClear.2 mph70%29.65 "Hg10 mi
9:20 PM36 °FClear.1 mph70%29.65 "Hg10 mi
8:50 PM39 °FClear.3 mph48%29.62 "Hg10 mi
8:20 PM36 °FClear.2 mph60%29.62 "Hg10 mi
7:50 PM36 °FClear.6 mph60%29.62 "Hg10 mi
7:20 PM37 °FClear.6 mph56%29.62 "Hg10 mi
6:50 PM36 °FClear.6 mph65%29.59 "Hg10 mi
6:20 PM39 °FClear.7 mph52%29.59 "Hg10 mi
5:50 PM43 °FPassing clouds.6 mph46%29.56 "HgN/A
5:20 PM46 °FSunny.7 mph32%29.56 "Hg10 mi
4:50 PM50 °FSunny.9 mph25%29.53 "Hg10 mi
4:20 PM52 °FPassing clouds.10 mph19%29.53 "HgN/A
3:50 PM52 °FPassing clouds.9 mph26%29.50 "HgN/A
3:20 PM52 °FPassing clouds.7 mph26%29.50 "HgN/A
2:50 PM52 °FPassing clouds.8 mph26%29.50 "HgN/A
2:20 PM50 °FPassing clouds.9 mph25%29.50 "HgN/A
1:50 PM50 °FPassing clouds.10 mph28%29.50 "HgN/A
1:20 PM50 °FPassing clouds.9 mph28%29.50 "HgN/A
12:50 PM50 °FPassing clouds.8 mph28%29.50 "HgN/A
12:20 PM50 °FPassing clouds.7 mph28%29.50 "HgN/A
11:50 AM50 °FSunny.2 mph32%29.50 "Hg10 mi
11:20 AM48 °FPassing clouds.3 mph40%29.50 "HgN/A
10:50 AM45 °FSunny.3 mph61%29.47 "Hg10 mi
10:20 AM43 °FSunny.3 mph61%29.47 "Hg10 mi
9:50 AM37 °FSunny.5 mph75%29.45 "Hg10 mi
9:20 AM36 °FPassing clouds.3 mph81%29.45 "HgN/A
8:50 AM34 °FSunny.3 mph93%29.45 "Hg10 mi
8:20 AM32 °FSunny.3 mph93%29.42 "Hg10 mi
7:50 AM32 °FSunny.1 mph93%29.42 "Hg10 mi
7:20 AM32 °FClear.1 mph87%29.39 "Hg10 mi
6:50 AM34 °FClear.2 mph81%29.39 "Hg10 mi
6:20 AM34 °FClear.2 mph81%29.39 "Hg10 mi
5:50 AM36 °FPassing clouds.2 mph81%29.39 "HgN/A
5:20 AM37 °FClear.2 mph75%29.36 "Hg10 mi
4:50 AM41 °FPassing clouds.7 mph53%29.36 "HgN/A
4:20 AM37 °FClear.6 mph87%29.36 "Hg10 mi
Weather by CustomWeather, © 2016

See weather overviewHow to use our weather pages